Location: Home
(42.5358°N, 72.7383°W)
Time: 17:09:32
(UTC-04:00)

Explorer 11/Cluster Stage 4 - Pass Details

Date: 06 August 2024
Orbit: 464 x 1208 km, 28.8° (Epoch: 19 September)

Event Time Altitude Azimuth Distance (km) Brightness Sun altitude
Rises 00:46:40 0° 218° (SW) 3,660 - -30.9°
Reaches altitude 10° 00:50:04 10° 200° (SSW) 2,842 - -30.9°
Maximum altitude 00:54:45 19° 159° (SSE) 2,393 - -30.9°
Drops below altitude 10° 00:59:46 10° 118° (ESE) 3,093 - -30.9°
Exits shadow 01:03:00 - 104° (ESE) 3,916 10.0 -30.9°
Sets 01:03:40 0° 102° (ESE) 4,103 10.2 -30.9°
